M I D A S
Marine Information and Data Acquisition System
Tripno 1942 of the Zeeleeuw from 2010-08-20 08:00:00 to 2010-08-20 17:00:00
Back to CruiseResearch ActivitiesStationsMapUnderway DataData graphs

EquipmentUnitsComment
TimeDGPSUTC
LatitudeDGPSDM.mWGS84
LongitudeDGPSDM.mWGS84
TemperatureSBE03/SBE38deg celciusITS90
ConductivitySBE21S/mITS90
SalinitySBE21 Practical Salinity Units
ChlorophylAChelsea fluorimeterg/lCalibrated in Aceton
Missing or incorrect values are displayed as -999
Sea surface data collected by the RV Zeeleeuw from 2010-08-20 08:00:00 to 2010-08-20 17:00:00
Time Latitude Longitude Temperature Conductivity Salinity ChlorophylA
2010-08-20 08:02:10 51°22.783 2°43.584 -999 -999 -999 -999
2010-08-20 08:04:10 51°22.803 2°43.68 -999 -999 -999 -999
2010-08-20 08:06:10 51°22.828 2°43.753 -999 -999 -999 -999
2010-08-20 08:08:10 51°22.854 2°43.833 -999 -999 -999 -999
2010-08-20 08:10:10 51°22.962 2°43.818 -999 -999 -999 -999
2010-08-20 08:12:10 51°22.863 2°43.551 -999 -999 -999 -999
2010-08-20 08:14:10 51°22.797 2°43.509 -999 -999 -999 -999
2010-08-20 08:16:10 51°22.782 2°43.53 -999 -999 -999 -999
2010-08-20 08:18:10 51°22.805 2°43.53 -999 -999 -999 -999
2010-08-20 08:20:10 51°22.827 2°43.512 -999 -999 -999 -999
2010-08-20 08:22:10 51°22.85 2°43.524 -999 -999 -999 -999
2010-08-20 08:24:10 51°22.874 2°43.55 -999 -999 -999 -999
2010-08-20 08:26:10 51°22.898 2°43.579 -999 -999 -999 -999
2010-08-20 08:28:10 51°22.924 2°43.61 -999 -999 -999 -999
2010-08-20 08:30:10 51°22.951 2°43.644 -999 -999 -999 -999
2010-08-20 08:32:10 51°22.981 2°43.684 -999 -999 -999 -999
2010-08-20 08:34:10 51°22.947 2°43.619 -999 -999 -999 -999
2010-08-20 08:36:10 51°22.842 2°43.548 -999 -999 -999 -999
2010-08-20 08:38:10 51°22.8 2°43.584 -999 -999 -999 -999
2010-08-20 08:40:10 51°22.795 2°43.644 -999 -999 -999 -999
2010-08-20 08:42:10 51°22.807 2°43.71 -999 -999 -999 -999
2010-08-20 08:44:10 51°22.832 2°43.777 -999 -999 -999 -999
2010-08-20 08:46:10 51°22.795 2°43.787 -999 -999 -999 -999
2010-08-20 08:48:10 51°22.744 2°43.597 -999 -999 -999 -999
2010-08-20 08:50:10 51°22.73 2°43.578 -999 -999 -999 -999
2010-08-20 08:52:10 51°22.739 2°43.596 -999 -999 -999 -999
2010-08-20 08:54:10 51°22.759 2°43.628 -999 -999 -999 -999
2010-08-20 08:56:10 51°22.784 2°43.664 -999 -999 -999 -999
2010-08-20 08:58:10 51°22.813 2°43.704 -999 -999 -999 -999
2010-08-20 09:00:10 51°22.906 2°43.679 -999 -999 -999 -999
2010-08-20 09:02:10 51°23.003 2°43.818 -999 -999 -999 -999
2010-08-20 09:04:10 51°23.364 2°43.9 -999 -999 -999 -999
2010-08-20 09:06:10 51°23.662 2°44.18 -999 -999 -999 -999
2010-08-20 09:08:10 51°23.855 2°44.496 -999 -999 -999 -999
2010-08-20 09:10:10 51°24.013 2°44.476 -999 -999 -999 -999
2010-08-20 09:12:10 51°23.749 2°44.246 -999 -999 -999 -999
2010-08-20 09:14:10 51°23.398 2°43.96 -999 -999 -999 -999
2010-08-20 09:16:10 51°23.159 2°43.853 -999 -999 -999 -999
2010-08-20 09:18:10 51°23.022 2°43.836 -999 -999 -999 -999
2010-08-20 09:20:10 51°22.921 2°43.742 -999 -999 -999 -999
2010-08-20 09:22:10 51°22.827 2°43.623 -999 -999 -999 -999
2010-08-20 09:24:10 51°22.774 2°43.512 -999 -999 -999 -999
2010-08-20 09:26:10 51°22.76 2°43.48 -999 -999 -999 -999
2010-08-20 09:28:10 51°22.784 2°43.507 -999 -999 -999 -999
2010-08-20 09:30:10 51°22.816 2°43.543 -999 -999 -999 -999
2010-08-20 09:32:10 51°22.797 2°43.524 -999 -999 -999 -999
2010-08-20 09:34:10 51°22.734 2°43.407 -999 -999 -999 -999
2010-08-20 09:36:10 51°22.867 2°43.347 -999 -999 -999 -999
2010-08-20 09:38:10 51°22.985 2°43.498 -999 -999 -999 -999
2010-08-20 09:40:10 51°23.022 2°43.607 -999 -999 -999 -999
2010-08-20 09:42:10 51°23.305 2°44.034 -999 -999 -999 -999
2010-08-20 09:44:10 51°23.709 2°44.302 -999 -999 -999 -999
2010-08-20 09:46:10 51°23.895 2°44.555 -999 -999 -999 -999
2010-08-20 09:48:10 51°24.007 2°44.518 -999 -999 -999 -999
2010-08-20 09:50:10 51°24.036 2°44.489 -999 -999 -999 -999
2010-08-20 09:52:10 51°24.036 2°44.451 -999 -999 -999 -999
2010-08-20 09:54:10 51°23.996 2°44.403 -999 -999 -999 -999
2010-08-20 09:56:10 51°23.95 2°44.352 -999 -999 -999 -999
2010-08-20 09:58:10 51°23.928 2°44.328 -999 -999 -999 -999
2010-08-20 10:00:10 51°23.924 2°44.315 -999 -999 -999 -999
2010-08-20 10:02:10 51°23.941 2°44.327 -999 -999 -999 -999
2010-08-20 10:04:10 51°23.974 2°44.363 -999 -999 -999 -999
2010-08-20 10:06:10 51°23.991 2°44.382 -999 -999 -999 -999
2010-08-20 10:08:10 51°23.959 2°44.352 -999 -999 -999 -999
2010-08-20 10:10:10 51°23.929 2°44.329 -999 -999 -999 -999
2010-08-20 10:12:10 51°23.917 2°44.304 -999 -999 -999 -999
2010-08-20 10:14:10 51°23.925 2°44.318 -999 -999 -999 -999
2010-08-20 10:16:10 51°23.949 2°44.359 -999 -999 -999 -999
2010-08-20 10:18:10 51°23.972 2°44.396 -999 -999 -999 -999
2010-08-20 10:20:10 51°23.943 2°44.345 -999 -999 -999 -999
2010-08-20 10:22:10 51°23.93 2°44.318 -999 -999 -999 -999
2010-08-20 10:24:10 51°23.94 2°44.336 -999 -999 -999 -999
2010-08-20 10:26:10 51°23.967 2°44.369 -999 -999 -999 -999
2010-08-20 10:28:10 51°23.987 2°44.367 -999 -999 -999 -999
2010-08-20 10:30:10 51°23.941 2°44.323 -999 -999 -999 -999
2010-08-20 10:32:10 51°23.934 2°44.318 -999 -999 -999 -999
2010-08-20 10:34:10 51°23.912 2°44.311 -999 -999 -999 -999
2010-08-20 10:36:10 51°23.916 2°44.316 -999 -999 -999 -999
2010-08-20 10:38:10 51°23.939 2°44.35 -999 -999 -999 -999
2010-08-20 10:40:10 51°23.969 2°44.393 -999 -999 -999 -999
2010-08-20 10:42:10 51°23.963 2°44.379 -999 -999 -999 -999
2010-08-20 10:44:10 51°23.933 2°44.328 -999 -999 -999 -999
2010-08-20 10:46:10 51°23.921 2°44.308 -999 -999 -999 -999
2010-08-20 10:48:10 51°23.926 2°44.333 -999 -999 -999 -999
2010-08-20 10:50:10 51°23.943 2°44.374 -999 -999 -999 -999
2010-08-20 10:52:10 51°24.129 2°44.3 -999 -999 -999 -999
2010-08-20 10:54:10 51°24.558 2°44.379 -999 -999 -999 -999
2010-08-20 10:56:10 51°24.837 2°44.479 -999 -999 -999 -999
2010-08-20 10:58:10 51°24.96 2°44.456 -999 -999 -999 -999
2010-08-20 11:00:10 51°24.978 2°44.399 -999 -999 -999 -999
2010-08-20 11:02:10 51°24.955 2°44.33 -999 -999 -999 -999
2010-08-20 11:04:10 51°24.928 2°44.305 -999 -999 -999 -999
2010-08-20 11:06:10 51°24.912 2°44.292 -999 -999 -999 -999
2010-08-20 11:08:10 51°24.925 2°44.306 -999 -999 -999 -999
2010-08-20 11:10:10 51°24.922 2°44.25 -999 -999 -999 -999
2010-08-20 11:12:10 51°24.84 2°44.061 -999 -999 -999 -999
2010-08-20 11:14:10 51°24.749 2°43.861 -999 -999 -999 -999
2010-08-20 11:16:10 51°24.702 2°43.761 -999 -999 -999 -999
2010-08-20 11:18:10 51°24.684 2°43.725 -999 -999 -999 -999
2010-08-20 11:20:10 51°24.671 2°43.708 -999 -999 -999 -999
2010-08-20 11:22:10 51°24.675 2°43.743 -999 -999 -999 -999
2010-08-20 11:24:10 51°24.693 2°43.796 -999 -999 -999 -999
2010-08-20 11:26:10 51°24.699 2°43.8 -999 -999 -999 -999
2010-08-20 11:28:10 51°24.688 2°43.728 -999 -999 -999 -999
2010-08-20 11:30:10 51°24.669 2°43.706 -999 -999 -999 -999
2010-08-20 11:32:10 51°24.669 2°43.734 -999 -999 -999 -999
2010-08-20 11:34:10 51°24.682 2°43.775 -999 -999 -999 -999
2010-08-20 11:36:10 51°24.692 2°43.757 -999 -999 -999 -999
2010-08-20 11:38:10 51°24.684 2°43.719 -999 -999 -999 -999
2010-08-20 11:40:10 51°24.673 2°43.708 -999 -999 -999 -999
2010-08-20 11:42:10 51°24.68 2°43.728 -999 -999 -999 -999
2010-08-20 11:44:10 51°24.699 2°43.779 -999 -999 -999 -999
2010-08-20 11:46:10 51°24.713 2°43.825 -999 -999 -999 -999
2010-08-20 11:48:10 51°24.701 2°43.74 -999 -999 -999 -999
2010-08-20 11:50:10 51°24.681 2°43.729 -999 -999 -999 -999
2010-08-20 11:52:10 51°24.671 2°43.725 -999 -999 -999 -999
2010-08-20 11:54:10 51°24.669 2°43.782 -999 -999 -999 -999
2010-08-20 11:56:10 51°24.673 2°43.838 -999 -999 -999 -999
2010-08-20 11:58:10 51°24.692 2°43.754 -999 -999 -999 -999
2010-08-20 13:00:10 51°22.866 2°43.556 -999 -999 -999 -999
2010-08-20 13:02:10 51°22.812 2°43.415 -999 -999 -999 -999
2010-08-20 13:04:10 51°22.861 2°43.398 -999 -999 -999 -999
2010-08-20 13:06:10 51°22.904 2°43.395 -999 -999 -999 -999
2010-08-20 13:08:10 51°22.835 2°43.344 -999 -999 -999 -999
2010-08-20 13:10:10 51°22.832 2°43.429 -999 -999 -999 -999
2010-08-20 13:12:10 51°22.826 2°43.488 -999 -999 -999 -999
2010-08-20 13:14:10 51°22.823 2°43.528 -999 -999 -999 -999
2010-08-20 13:16:10 51°22.827 2°43.559 -999 -999 -999 -999
2010-08-20 13:18:10 51°22.835 2°43.593 -999 -999 -999 -999
2010-08-20 13:20:10 51°22.845 2°43.631 -999 -999 -999 -999
2010-08-20 13:22:10 51°22.856 2°43.668 -999 -999 -999 -999
2010-08-20 13:24:10 51°22.811 2°43.637 -999 -999 -999 -999
2010-08-20 13:26:10 51°22.807 2°43.496 -999 -999 -999 -999
2010-08-20 13:28:10 51°22.831 2°43.482 -999 -999 -999 -999
2010-08-20 13:30:10 51°22.862 2°43.495 -999 -999 -999 -999
2010-08-20 13:32:10 51°22.888 2°43.407 -999 -999 -999 -999
2010-08-20 13:34:10 51°22.795 2°43.409 -999 -999 -999 -999
2010-08-20 13:36:10 51°22.743 2°43.482 -999 -999 -999 -999
2010-08-20 13:38:10 51°22.722 2°43.522 -999 -999 -999 -999
2010-08-20 13:40:10 51°22.718 2°43.557 -999 -999 -999 -999
2010-08-20 13:42:10 51°22.725 2°43.597 -999 -999 -999 -999
2010-08-20 13:44:10 51°22.739 2°43.634 -999 -999 -999 -999
2010-08-20 13:46:10 51°22.75 2°43.674 -999 -999 -999 -999
2010-08-20 13:48:10 51°22.695 2°43.589 -999 -999 -999 -999
2010-08-20 13:50:10 51°22.753 2°43.548 -999 -999 -999 -999
2010-08-20 13:52:10 51°22.784 2°43.563 -999 -999 -999 -999
2010-08-20 13:54:10 51°22.803 2°43.593 -999 -999 -999 -999
2010-08-20 13:56:10 51°22.829 2°43.621 -999 -999 -999 -999
2010-08-20 13:58:10 51°22.834 2°43.496 -999 -999 -999 -999
2010-08-20 14:00:10 51°22.787 2°43.484 -999 -999 -999 -999
2010-08-20 14:02:10 51°22.776 2°43.512 -999 -999 -999 -999
2010-08-20 14:04:10 51°22.784 2°43.554 -999 -999 -999 -999
2010-08-20 14:06:10 51°22.742 2°43.558 -999 -999 -999 -999
2010-08-20 14:08:10 51°22.721 2°43.493 -999 -999 -999 -999
2010-08-20 14:10:10 51°22.723 2°43.51 -999 -999 -999 -999
2010-08-20 14:12:10 51°22.745 2°43.548 -999 -999 -999 -999
2010-08-20 14:14:10 51°22.695 2°43.472 -999 -999 -999 -999
2010-08-20 14:16:10 51°22.701 2°43.491 -999 -999 -999 -999
2010-08-20 14:18:10 51°22.702 2°43.52 -999 -999 -999 -999
2010-08-20 14:20:10 51°22.707 2°43.548 -999 -999 -999 -999
2010-08-20 14:22:10 51°22.715 2°43.572 -999 -999 -999 -999
2010-08-20 14:24:10 51°22.725 2°43.597 -999 -999 -999 -999
2010-08-20 14:26:10 51°22.731 2°43.623 -999 -999 -999 -999
2010-08-20 14:28:10 51°22.734 2°43.648 -999 -999 -999 -999
2010-08-20 14:30:10 51°22.74 2°43.672 -999 -999 -999 -999
2010-08-20 14:32:10 51°22.753 2°43.671 -999 -999 -999 -999
2010-08-20 14:34:10 51°22.709 2°43.51 -999 -999 -999 -999
2010-08-20 14:36:10 51°22.702 2°43.534 -999 -999 -999 -999
2010-08-20 14:38:10 51°22.703 2°43.556 -999 -999 -999 -999
2010-08-20 14:40:10 51°22.705 2°43.576 -999 -999 -999 -999
2010-08-20 14:42:10 51°22.676 2°43.685 -999 -999 -999 -999
2010-08-20 14:44:10 51°22.675 2°43.801 -999 -999 -999 -999
2010-08-20 14:46:10 51°22.62 2°43.961 -999 -999 -999 -999
2010-08-20 14:48:10 51°22.317 2°44.418 -999 -999 -999 -999
2010-08-20 14:50:10 51°21.974 2°44.829 -999 -999 -999 -999
2010-08-20 14:52:10 51°21.622 2°45.216 -999 -999 -999 -999
2010-08-20 14:54:10 51°21.263 2°45.582 -999 -999 -999 -999
2010-08-20 14:56:10 51°20.908 2°45.945 -999 -999 -999 -999
2010-08-20 14:58:10 51°20.578 2°46.381 -999 -999 -999 -999
2010-08-20 15:00:10 51°20.298 2°46.885 -999 -999 -999 -999
2010-08-20 15:02:10 51°19.996 2°47.369 -999 -999 -999 -999
2010-08-20 15:04:10 51°19.693 2°47.849 -999 -999 -999 -999
2010-08-20 15:06:10 51°19.388 2°48.326 -999 -999 -999 -999
2010-08-20 15:08:10 51°19.081 2°48.802 -999 -999 -999 -999
2010-08-20 15:10:10 51°18.783 2°49.271 -999 -999 -999 -999
2010-08-20 15:12:10 51°18.48 2°49.729 -999 -999 -999 -999
2010-08-20 15:14:10 51°18.167 2°50.198 -999 -999 -999 -999
2010-08-20 15:16:10 51°17.86 2°50.665 -999 -999 -999 -999
2010-08-20 15:18:10 51°17.556 2°51.144 -999 -999 -999 -999
2010-08-20 15:20:10 51°17.242 2°51.613 -999 -999 -999 -999
2010-08-20 15:22:10 51°16.891 2°52.018 -999 -999 -999 -999
2010-08-20 15:24:10 51°16.559 2°52.452 -999 -999 -999 -999
2010-08-20 15:26:10 51°16.225 2°52.879 -999 -999 -999 -999
2010-08-20 15:28:10 51°15.898 2°53.324 -999 -999 -999 -999
2010-08-20 15:30:10 51°15.567 2°53.768 -999 -999 -999 -999
2010-08-20 15:32:10 51°15.266 2°54.168 -999 -999 -999 -999